TimeMST,TemperatureF,Dew PointF,Humidity,Sea Level PressureIn,VisibilityMPH,Wind Direction,Wind SpeedMPH,Gust SpeedMPH,PrecipitationIn,Events,Conditions,WindDirDegrees,DateUTC
12:01 AM,26.6,23.0,86,29.67,1.5,NNE,17.3,-,0.00,Snow,Light Snow,30,2013-03-04 07:01:00
12:11 AM,26.6,23.0,86,29.68,1.0,NNE,16.1,-,0.00,Snow,Light Snow,30,2013-03-04 07:11:00
12:31 AM,24.8,23.0,93,29.69,1.0,NNE,17.3,-,0.01,Snow,Light Snow,20,2013-03-04 07:31:00
12:53 AM,25.0,21.9,88,29.78,1.2,NNE,16.1,-,0.01,Snow,Light Snow,20,2013-03-04 07:53:00
1:03 AM,24.8,21.2,86,29.71,1.5,NNE,18.4,-,0.00,Snow,Light Snow,30,2013-03-04 08:03:00
1:12 AM,24.8,21.2,86,29.72,1.0,NNE,19.6,27.6,0.01,Snow,Light Snow,30,2013-03-04 08:12:00
1:39 AM,24.8,21.2,86,29.74,1.0,North,13.8,-,0.01,Snow,Light Snow,360,2013-03-04 08:39:00
1:51 AM,24.8,21.2,86,29.75,0.8,NNE,17.3,23.0,N/A,Snow,Light Snow,20,2013-03-04 08:51:00
1:53 AM,24.1,21.0,88,29.83,0.8,NNE,13.8,23.0,0.02,Snow,Light Snow,20,2013-03-04 08:53:00
2:21 AM,24.8,21.2,86,29.77,0.8,North,15.0,-,0.02,Snow,Light Snow,360,2013-03-04 09:21:00
2:53 AM,21.9,19.0,89,29.88,0.5,North,24.2,-,0.02,Fog-Snow,Snow,10,2013-03-04 09:53:00
3:03 AM,21.2,17.6,86,29.80,1.0,North,25.3,34.5,0.01,,Mist,10,2013-03-04 10:03:00
3:12 AM,21.2,17.6,86,29.81,0.8,North,21.9,34.5,0.01,Snow,Light Snow,10,2013-03-04 10:12:00
3:21 AM,21.2,17.6,86,29.82,0.5,North,24.2,32.2,0.01,Fog,Light Freezing Fog,10,2013-03-04 10:21:00
3:45 AM,19.4,17.6,93,29.83,0.8,North,25.3,34.5,0.03,,Mist,360,2013-03-04 10:45:00
3:53 AM,19.9,17.1,89,29.93,0.8,North,23.0,39.1,0.03,,Mist,360,2013-03-04 10:53:00
4:08 AM,19.4,17.6,93,29.85,1.0,North,25.3,31.1,N/A,,Mist,360,2013-03-04 11:08:00
4:36 AM,19.4,17.6,93,29.87,0.8,North,25.3,34.5,0.01,,Mist,350,2013-03-04 11:36:00
4:53 AM,19.9,17.1,89,29.97,1.0,North,27.6,38.0,0.01,,Mist,350,2013-03-04 11:53:00
5:09 AM,19.4,15.8,86,29.89,1.0,North,26.5,39.1,N/A,,Mist,350,2013-03-04 12:09:00
5:53 AM,19.9,16.0,85,30.02,1.0,North,28.8,36.8,0.01,,Mist,350,2013-03-04 12:53:00
6:05 AM,19.4,15.8,86,29.95,0.8,North,29.9,36.8,N/A,,Mist,350,2013-03-04 13:05:00
6:33 AM,19.4,17.6,93,29.97,0.5,North,25.3,34.5,0.01,Fog,Light Freezing Fog,350,2013-03-04 13:33:00
6:53 AM,19.9,16.0,85,30.07,0.8,North,24.2,35.7,0.02,,Mist,350,2013-03-04 13:53:00
7:13 AM,19.4,15.8,86,29.99,0.8,North,27.6,40.3,0.01,,Mist,350,2013-03-04 14:13:00
7:53 AM,19.0,15.1,85,30.12,0.8,North,29.9,40.3,0.01,,Overcast,350,2013-03-04 14:53:00
8:06 AM,19.4,14.0,80,30.04,1.5,North,24.2,35.7,N/A,,Haze,350,2013-03-04 15:06:00
8:22 AM,19.4,14.0,80,30.05,1.2,North,25.3,36.8,N/A,,Haze,350,2013-03-04 15:22:00
8:27 AM,19.4,14.0,80,30.05,2.0,North,21.9,33.4,N/A,,Haze,350,2013-03-04 15:27:00
8:53 AM,19.0,12.9,77,30.17,3.0,North,26.5,34.5,N/A,,Haze,360,2013-03-04 15:53:00
9:02 AM,17.6,12.2,79,30.07,2.5,North,32.2,39.1,N/A,,Haze,360,2013-03-04 16:02:00
9:24 AM,17.6,12.2,79,30.09,5.0,North,27.6,38.0,N/A,,Haze,360,2013-03-04 16:24:00
9:53 AM,18.0,12.0,78,30.21,9.0,North,26.5,34.5,N/A,,Overcast,350,2013-03-04 16:53:00
10:53 AM,18.0,12.0,78,30.24,4.0,North,27.6,39.1,N/A,,Haze,350,2013-03-04 17:53:00
11:53 AM,19.9,12.0,71,30.27,10.0,North,26.5,39.1,N/A,,Overcast,350,2013-03-04 18:53:00
12:17 PM,19.4,12.2,74,30.17,10.0,NNW,24.2,33.4,N/A,,Overcast,330,2013-03-04 19:17:00
12:41 PM,21.2,12.2,68,30.17,10.0,NNW,26.5,35.7,N/A,,Scattered Clouds,340,2013-03-04 19:41:00
12:53 PM,21.0,10.9,65,30.30,10.0,NNW,25.3,33.4,N/A,,Partly Cloudy,340,2013-03-04 19:53:00
1:12 PM,19.4,10.4,68,30.19,10.0,NNW,28.8,36.8,N/A,,Mostly Cloudy,330,2013-03-04 20:12:00
1:53 PM,19.9,10.9,68,30.32,10.0,NNW,27.6,-,N/A,,Mostly Cloudy,340,2013-03-04 20:53:00
2:53 PM,19.9,10.9,68,30.35,10.0,NNW,26.5,35.7,N/A,,Overcast,330,2013-03-04 21:53:00
3:53 PM,19.9,10.9,68,30.38,10.0,NW,25.3,29.9,N/A,,Mostly Cloudy,320,2013-03-04 22:53:00
4:53 PM,17.1,9.0,71,30.42,10.0,NW,19.6,-,0.00,,Overcast,320,2013-03-04 23:53:00
5:36 PM,15.8,8.6,73,30.31,10.0,NNW,19.6,-,N/A,,Partly Cloudy,330,2013-03-05 00:36:00
5:53 PM,15.1,9.0,77,30.46,10.0,NW,19.6,-,N/A,,Clear,320,2013-03-05 00:53:00
6:12 PM,14.0,8.6,79,30.33,10.0,NW,11.5,-,N/A,,Mostly Cloudy,310,2013-03-05 01:12:00
6:20 PM,12.2,8.6,85,30.33,10.0,NW,12.7,-,N/A,,Mostly Cloudy,320,2013-03-05 01:20:00
6:34 PM,12.2,8.6,85,30.33,10.0,NNW,15.0,-,N/A,,Scattered Clouds,330,2013-03-05 01:34:00
6:53 PM,12.9,8.1,81,30.48,10.0,NW,15.0,-,N/A,,Clear,320,2013-03-05 01:53:00
7:53 PM,10.9,7.0,84,30.48,10.0,NNW,11.5,-,N/A,,Clear,330,2013-03-05 02:53:00
8:53 PM,9.0,5.0,84,30.50,10.0,WNW,6.9,-,N/A,,Clear,300,2013-03-05 03:53:00
9:53 PM,7.0,3.9,87,30.51,10.0,NW,9.2,-,N/A,,Clear,310,2013-03-05 04:53:00
10:53 PM,7.0,3.9,87,30.52,10.0,NNW,5.8,-,N/A,,Clear,340,2013-03-05 05:53:00